This is the latest recevied weather packets stored in our database for station/object KD9JJA. If no packets are shown the sender has not sent any weather packets the latest 10 day(s).
| Time | Temp. | Humidity | Pressure | Rain* | Wind** | Luminosity | Snow |
|---|---|---|---|---|---|---|---|
| 1777732272 | 7.78° C | 82% | 1021 hPa | 0 mm | - | 374 W/m² | - |
| 1777731968 | 7.78° C | 81% | 1021 hPa | 0 mm | - | 109 W/m² | - |
| 1777731665 | 6.67° C | 83% | 1021.3 hPa | 0 mm | - | 244 W/m² | - |
| 1777731363 | 6.67° C | 84% | 1021.3 hPa | 0 mm | - | 102 W/m² | - |
| 1777731060 | 6.67° C | 83% | 1021.1 hPa | 0 mm | - | 85 W/m² | - |
| 1777730759 | 6.67° C | 83% | 1021 hPa | 0 mm | - | 78 W/m² | - |
| 1777730455 | 6.67° C | 83% | 1021 hPa | 0 mm | - | 71 W/m² | - |
| 1777730150 | 6.11° C | 84% | 1021.3 hPa | 0 mm | - | 58 W/m² | - |
| 1777729847 | 6.11° C | 84% | 1021.1 hPa | 0 mm | - | 47 W/m² | - |
| 1777729544 | 6.11° C | 85% | 1021.1 hPa | 0 mm | - | 49 W/m² | - |
| 1777729241 | 6.11° C | 86% | 1021.1 hPa | 0 mm | - | 34 W/m² | - |
| 1777728938 | 6.11° C | 88% | 1020.9 hPa | 0 mm | - | 23 W/m² | - |
| 1777728635 | 6.11° C | 89% | 1021 hPa | 0 mm | - | 14 W/m² | - |
| 1777728332 | 6.11° C | 88% | 1020.9 hPa | 0 mm | - | 11 W/m² | - |
| 1777728029 | 6.11° C | 89% | 1020.8 hPa | 0 mm | - | 12 W/m² | - |
| 1777727726 | 6.11° C | 87% | 1021.1 hPa | 0 mm | - | 15 W/m² | - |
| 1777727422 | 6.11° C | 87% | 1021 hPa | 0 mm | - | 15 W/m² | - |
| 1777727120 | 6.11° C | 88% | 1020.9 hPa | 0 mm | - | 20 W/m² | - |
| 1777726818 | 5.56° C | 87% | 1021.1 hPa | 0 mm | - | 26 W/m² | - |
| 1777726514 | 5.56° C | 87% | 1020.8 hPa | 0 mm | - | 29 W/m² | - |
| 1777726211 | 5.56° C | 86% | 1020.9 hPa | 0 mm | - | 27 W/m² | - |
| 1777725908 | 5.56° C | 87% | 1021 hPa | 0 mm | - | 24 W/m² | - |
| 1777725605 | 5.56° C | 87% | 1020.7 hPa | 0 mm | - | 38 W/m² | - |
| 1777725303 | 5.56° C | 88% | 1020.6 hPa | 0 mm | - | 37 W/m² | - |
| 1777724999 | 5.56° C | 89% | 1020.7 hPa | 0 mm | - | 32 W/m² | - |
* Rain latest hour (hover to see other rain measurements)
** Current wind speed in m/s (hover to see current wind gust speed)